ジェディキ彗星

P/1996 A1 ( Jedicke ) 2014

English version
Home page
Updated on July 22, 2011

---------------------------------------------------------------------

・ プロフィール

・ 軌道要素

Perturbed ephemeris below is based on elements from MPC 31893. 

 Epoch = 2456960.50000 TT   T = 2456976.86641 TT
 Peri. =  223.37619         a =     7.3255168 AU
 Node  =  248.71732 J2000.0 e =     0.4431253
 Incl. =    6.60233         q =     4.0793951 AU

・ 星図

・ 光度変化

        m1 = 4.2 + 5 logΔ + 15.0 log r

---------------------------------------------------------------------

軌道要素はMinor Planet & Comet Ephemeris Serviceで計算したものです。
星図はステラナビゲータ Ver.8 (アストロアーツ) で作成したものです。
光度グラフはComet for Windowsで作成したものです。

---------------------------------------------------------------------

Copyright(C) Seiichi Yoshida (comet@aerith.net). All rights reserved.